Regional Weather Roundup
Issued by NWS Goodland, KS

Home | Current Version | Previous Version | Graphics & Text | Print | Product List | Glossary On
Versions: 1 2 3 4 5 6 7 8 9 10 11 12 13 14 15 16 17 18 19 20 21 22 23 24 25 26 27 28 29 30 31 32 33 34 35 36 37 38 39 40 41 42 43 44 45 46 47 48 49 50
000
ASUS43 KGLD 301859
RWRGLD

GOODLAND FORECAST AREA HOURLY WEATHER ROUNDUP
NATIONAL WEATHER SERVICE GOODLAND KS
1200 PM MST FRI JAN 30 2015

...OFFICIAL OBSERVATIONS...

CITY           SKY/WX    TMP DP  RH WIND       PRES   REMARKS
GOODLAND KS    CLOUDY    48  33  56 SW25G35   30.22F
HILL CITY KS   CLOUDY    44  25  47 S13       30.34F
IMPERIAL NEB   PTSUNNY   47  27  45 S16G24    30.20F
MCCOOK NEB     CLOUDY    46  26  45 S17       30.26F
AKRON CO       CLOUDY    45  28  51 SW14      30.14F
BURLINGTON CO  CLOUDY    43  31  62 S31G39    30.21F
LIMON CO       CLOUDY    42  28  57 S16G23    30.17F
$$

...UNOFFICIAL OBSERVATIONS...

CITY           SKY/WX    TMP DP  RH WIND       PRES   REMARKS
COLBY KS       CLOUDY    48  32  53 S16G24    30.26F
GOVE KS          N/A     46  32  58 MISG        N/A
NORTON KS      CLOUDY    45  21  39 S17       30.30F
SHARON SPRINGS   N/A     47  31  53 S15G23      N/A
KIT CARSON CO    N/A     41  33  73 MISG        N/A
YUMA CO          N/A     48  30  49 SW22        N/A
$$



USA.gov is the U.S. government's official web portal to all federal, state and local government web resources and services.